Grosse Ile, MI

8:17 PM EST on February 10, 2016 (GMT -0500)
Grosse Ile Municipal

Weather History for KONZ - January, 2014

Change the Weather History Date:

Thursday, January 16, 2014

  Actual Average (KDTW) Record (KDTW)
Temperature  
Mean Temperature 24 °F 25 °F  
Max Temperature 28 °F 32 °F 55 °F (1953)
Min Temperature 19 °F 19 °F -15 °F (2009)
Degree Days  
Heating Degree Days 42 40  
Month to date heating degree days 630  
Since 1 July heating degree days 2927  
Cooling Degree Days 0 0  
Month to date cooling degree days 0  
Year to date cooling degree days 0  
Moisture  
Dew Point 19 °F    
Average Humidity 82    
Maximum Humidity 93    
Minimum Humidity 68    
Precipitation  
Precipitation 0.00 in 0.06 in 0.47 in (1924)
Month to date precipitation 1.07  
Year to date precipitation 1.07  
Snow  
Snow 0.00 in 0.40 in 4.20 in (1959)
Month to date snowfall 6.5  
Since 1 July snowfall 17.7  
Snow Depth -    
Sea Level Pressure  
Sea Level Pressure 29.77 in    
Wind  
Wind Speed 15 mph (South)    
Max Wind Speed 25 mph    
Max Gust Speed 29 mph    
Visibility 6 miles    
Events Snow    
T = Trace of Precipitation, MM = Missing Value Source: NWS Daily Summary

Daily Weather History Graph

Daily Weather History Graph

Search for Another Location

Airport or City:

Trip Planner

Search our weather history database for the weather conditions in past years. The results will help you decide how hot, cold, wet, or windy it might be!

Date:

Astronomy

Jan. 16, 2014 Rise Set
Actual Time 7:57 AM EST 5:27 PM EST
Civil Twilight 7:27 AM EST 5:58 PM EST
Nautical Twilight 6:52 AM EST 6:32 PM EST
Astronomical Twilight 6:19 AM EST 7:06 PM EST
Moon 6:19 PM EST (1/16) 7:49 AM EST (1/16)
Length of Visible Light 10h 30m
Length of Day
9h 29m
Full, 100% of the Moon is Illuminated
Jan 16
Full
Jan 24
Last Quarter
Jan 30
New
Feb 6
First Quarter
Feb 14
Full

Hourly Weather History & Observations

Time (EST) Temp. Windchill Dew Point Humidity Pressure Visibility Wind Dir Wind Speed Gust Speed Precip Events Conditions
12:14 AM 23.0 °F 14.7 °F 14.0 °F 68% 29.95 in 10.0 mi SW 6.9 mph - N/A   Overcast
12:34 AM 21.2 °F 10.9 °F 15.8 °F 80% 29.94 in 10.0 mi SW 9.2 mph - N/A Snow Light Snow
12:54 AM 21.2 °F 11.7 °F 15.8 °F 80% 29.94 in 10.0 mi SW 8.1 mph - N/A   Overcast
1:15 AM 21.2 °F 10.1 °F 15.8 °F 80% 29.92 in 10.0 mi SSW 10.4 mph - N/A Snow Light Snow
1:34 AM 21.2 °F 12.6 °F 17.6 °F 86% 29.92 in 10.0 mi SW 6.9 mph - N/A Snow Light Snow
1:54 AM 21.2 °F 7.8 °F 15.8 °F 80% 29.91 in 10.0 mi SSW 15.0 mph - N/A Snow Light Snow
2:14 AM 21.2 °F 9.5 °F 12.2 °F 68% 29.92 in 10.0 mi SW 11.5 mph - N/A   Overcast
2:34 AM 21.2 °F 9.5 °F 14.0 °F 74% 29.92 in 10.0 mi SSW 11.5 mph - N/A Snow Light Snow
2:55 AM 21.2 °F 8.9 °F 14.0 °F 74% 29.91 in 10.0 mi SW 12.7 mph - N/A Snow Light Snow
3:14 AM 21.2 °F 7.8 °F 12.2 °F 68% 29.91 in 10.0 mi SSW 15.0 mph 19.6 mph N/A   Overcast
3:34 AM 21.2 °F 9.5 °F 12.2 °F 68% 29.90 in 10.0 mi SSW 11.5 mph 18.4 mph N/A   Overcast
3:54 AM 21.2 °F 9.5 °F 12.2 °F 68% 29.90 in 10.0 mi SW 11.5 mph 16.1 mph N/A   Overcast
4:14 AM 21.2 °F 12.6 °F 12.2 °F 68% 29.89 in 10.0 mi SW 6.9 mph - N/A   Overcast
4:34 AM 21.2 °F 7.3 °F 14.0 °F 74% 29.89 in 10.0 mi SW 16.1 mph 19.6 mph N/A   Overcast
4:54 AM 21.2 °F 8.9 °F 12.2 °F 68% 29.88 in 10.0 mi SW 12.7 mph 18.4 mph N/A   Overcast
5:14 AM 21.2 °F 7.8 °F 12.2 °F 68% 29.88 in 10.0 mi SSW 15.0 mph 19.6 mph N/A   Overcast
5:34 AM 21.2 °F 10.1 °F 12.2 °F 68% 29.86 in 10.0 mi SSW 10.4 mph 17.3 mph N/A   Overcast
5:54 AM 21.2 °F 7.3 °F 12.2 °F 68% 29.86 in 10.0 mi SSW 16.1 mph - N/A   Overcast
6:14 AM 19.4 °F 6.0 °F 12.2 °F 74% 29.85 in 10.0 mi SSW 13.8 mph 21.9 mph N/A   Overcast
6:34 AM 21.2 °F 10.9 °F 12.2 °F 68% 29.85 in 10.0 mi SSW 9.2 mph - N/A   Overcast
6:54 AM 21.2 °F 5.6 °F 14.0 °F 74% 29.84 in 10.0 mi South 20.7 mph - N/A   Overcast
7:15 AM 21.2 °F 5.6 °F 15.8 °F 80% 29.83 in 10.0 mi South 20.7 mph - N/A   Overcast
7:34 AM 21.2 °F 5.6 °F 15.8 °F 80% 29.83 in 10.0 mi South 20.7 mph - N/A   Overcast
7:54 AM 21.2 °F 4.9 °F 15.8 °F 80% 29.82 in 10.0 mi South 23.0 mph - N/A   Overcast
8:14 AM 21.2 °F 4.9 °F 15.8 °F 80% 29.81 in 10.0 mi South 23.0 mph 27.6 mph N/A   Overcast
8:34 AM 21.2 °F 4.9 °F 15.8 °F 80% 29.81 in 10.0 mi South 23.0 mph 27.6 mph N/A   Overcast
8:54 AM 21.2 °F 4.9 °F 15.8 °F 80% 29.81 in 10.0 mi South 23.0 mph 26.5 mph N/A   Overcast
9:14 AM 23.0 °F 6.6 °F 15.8 °F 74% 29.81 in 10.0 mi South 25.3 mph - N/A   Overcast
9:34 AM 23.0 °F 7.6 °F 17.6 °F 80% 29.81 in 10.0 mi South 21.9 mph - N/A   Overcast
9:55 AM 23.0 °F 6.6 °F 17.6 °F 80% 29.81 in 10.0 mi South 25.3 mph 28.8 mph N/A   Overcast
10:14 AM 23.0 °F 6.6 °F 17.6 °F 80% 29.81 in 10.0 mi South 25.3 mph - N/A   Overcast
10:34 AM 24.8 °F 9.3 °F 17.6 °F 74% 29.80 in 10.0 mi South 24.2 mph - N/A   Overcast
10:54 AM 24.8 °F 9.3 °F 17.6 °F 74% 29.79 in 7.0 mi South 24.2 mph 28.8 mph N/A   Overcast
11:14 AM 24.8 °F 10.0 °F 17.6 °F 74% 29.78 in 2.5 mi South 21.9 mph - N/A Snow Light Snow
11:34 AM 24.8 °F 9.6 °F 17.6 °F 74% 29.78 in 3.0 mi South 23.0 mph 27.6 mph N/A Snow Light Snow
11:54 AM 24.8 °F 9.3 °F 19.4 °F 80% 29.78 in 1.8 mi South 24.2 mph 27.6 mph N/A Snow Light Snow
12:14 PM 24.8 °F 9.6 °F 19.4 °F 80% 29.76 in 1.0 mi South 23.0 mph 28.8 mph N/A Snow Light Snow
12:34 PM 24.8 °F 10.0 °F 21.2 °F 86% 29.75 in 0.8 mi South 21.9 mph - N/A Snow Light Snow
12:54 PM 24.8 °F 10.3 °F 21.2 °F 86% 29.74 in 1.2 mi South 20.7 mph - N/A Snow Light Snow
1:14 PM 24.8 °F 10.0 °F 21.2 °F 86% 29.72 in 1.2 mi South 21.9 mph - N/A Snow Light Snow
1:35 PM 24.8 °F 11.5 °F 21.2 °F 86% 29.70 in 1.5 mi South 17.3 mph 25.3 mph N/A Snow Light Snow
1:54 PM 24.8 °F 11.1 °F 21.2 °F 86% 29.70 in 1.5 mi South 18.4 mph 25.3 mph N/A Snow Light Snow
2:14 PM 24.8 °F 9.6 °F 21.2 °F 86% 29.70 in 1.2 mi South 23.0 mph 26.5 mph N/A Snow Light Snow
2:34 PM 24.8 °F 11.1 °F 21.2 °F 86% 29.69 in 1.5 mi South 18.4 mph 25.3 mph N/A Snow Light Snow
2:54 PM 24.8 °F 10.7 °F 21.2 °F 86% 29.68 in 1.2 mi South 19.6 mph 27.6 mph N/A Snow Light Snow
3:14 PM 26.6 °F 13.4 °F 21.2 °F 80% 29.68 in 1.5 mi South 18.4 mph - N/A Snow Light Snow
3:34 PM 26.6 °F 13.8 °F 23.0 °F 86% 29.68 in 1.0 mi South 17.3 mph - N/A Snow Light Snow
3:54 PM 26.6 °F 13.4 °F 23.0 °F 86% 29.67 in 1.0 mi South 18.4 mph 24.2 mph N/A Snow Light Snow
4:15 PM 26.6 °F 12.7 °F 23.0 °F 86% 29.67 in 0.5 mi South 20.7 mph - N/A Snow Snow
4:34 PM 26.6 °F 12.4 °F 24.8 °F 93% 29.67 in 0.8 mi South 21.9 mph 26.5 mph N/A Snow Light Snow
4:54 PM 26.6 °F 12.7 °F 24.8 °F 93% 29.67 in 7.0 mi South 20.7 mph 25.3 mph N/A Snow Light Snow
5:15 PM 26.6 °F 13.1 °F 24.8 °F 93% 29.68 in 7.0 mi South 19.6 mph - N/A Snow Light Snow
5:34 PM 26.6 °F 12.4 °F 24.8 °F 93% 29.68 in 10.0 mi South 21.9 mph - N/A Snow Light Snow
5:54 PM 26.6 °F 13.1 °F 24.8 °F 93% 29.69 in 1.8 mi South 19.6 mph 24.2 mph N/A Snow Light Snow
6:14 PM 26.6 °F 13.1 °F 24.8 °F 93% 29.68 in 7.0 mi South 19.6 mph 25.3 mph N/A   Overcast
6:34 PM 26.6 °F 13.4 °F 24.8 °F 93% 29.69 in 10.0 mi South 18.4 mph - N/A   Overcast
6:54 PM 26.6 °F 12.7 °F 24.8 °F 93% 29.69 in 10.0 mi South 20.7 mph - N/A   Overcast
7:14 PM 26.6 °F 13.1 °F 24.8 °F 93% 29.68 in 10.0 mi South 19.6 mph 24.2 mph N/A   Overcast
7:34 PM 28.4 °F 16.2 °F 24.8 °F 86% 29.68 in 7.0 mi South 17.3 mph 24.2 mph N/A   Overcast
7:54 PM 28.4 °F 15.4 °F 24.8 °F 86% 29.68 in 3.0 mi South 19.6 mph 24.2 mph N/A Snow Light Snow
8:14 PM 28.4 °F 15.1 °F 24.8 °F 86% 29.68 in 4.0 mi South 20.7 mph - N/A Snow Light Snow
8:34 PM 28.4 °F 15.8 °F 24.8 °F 86% 29.67 in 2.0 mi South 18.4 mph - N/A Snow Light Snow
8:55 PM 28.4 °F 15.4 °F 24.8 °F 86% 29.67 in 1.5 mi South 19.6 mph - N/A Snow Light Snow
9:14 PM 28.4 °F 15.8 °F 24.8 °F 86% 29.67 in 3.0 mi South 18.4 mph - N/A Snow Light Snow
9:34 PM 28.4 °F 16.2 °F 24.8 °F 86% 29.67 in 2.5 mi South 17.3 mph - N/A Snow Light Snow
9:55 PM 28.4 °F 16.2 °F 24.8 °F 86% 29.67 in 1.8 mi South 17.3 mph - N/A Snow Light Snow
10:14 PM 28.4 °F 16.2 °F 24.8 °F 86% 29.67 in 2.0 mi South 17.3 mph - N/A Snow Light Snow
10:34 PM 28.4 °F 16.2 °F 26.6 °F 93% 29.66 in 4.0 mi South 17.3 mph - N/A Snow Light Snow
10:54 PM 28.4 °F 15.8 °F 26.6 °F 93% 29.66 in 2.5 mi South 18.4 mph - N/A Snow Light Snow
11:14 PM 28.4 °F 15.8 °F 26.6 °F 93% 29.65 in 3.0 mi South 18.4 mph - N/A Snow Light Snow
11:34 PM 28.4 °F 16.2 °F 26.6 °F 93% 29.65 in 3.0 mi South 17.3 mph - N/A Snow Light Snow
11:54 PM 28.4 °F 17.5 °F 26.6 °F 93% 29.64 in 3.0 mi South 13.8 mph - N/A Snow Light Snow